Regional Weather Roundup
Issued by NWS Wakefield, VA

Home | Current Version | Previous Version | Graphics & Text | Print | Product List | Glossary On
Versions: 1 2 3 4 5 6 7 8 9 10 11 12 13 14 15 16 17 18 19 20 21 22 23 24 25 26 27 28 29 30 31 32 33 34 35 36 37 38 39 40 41 42 43 44 45 46 47 48 49 50
000
ASUS41 KAKQ 021015
RWRAKQ

REGIONAL WEATHER ROUNDUP
NATIONAL WEATHER SERVICE WAKEFIELD VA
600 AM EDT SUN AUG 02 2015

Note: "fair" indicates few or no clouds below 12,000 feet with no
significant weather and/or obstructions to visibility. * = Denotes
station may not report precipitation (e.g., rain,snow,etc.),
thunder or fog.

VAZ042-051-052>054-056-021100-
NORTHERN VIRGINIA

CITY           SKY/WX    TMP DP  RH WIND       PRES   REMARKS
WASH NATIONAL  PTCLDY    74  60  61 N6        29.93R
DULLES         PTCLDY    61  58  90 CALM      29.93R
FORT BELVOIR   CLEAR     64  62  93 CALM      29.92
QUANTICO       NOT AVBL
FREDERICKSBRG* PTCLDY    67  62  81 CALM      29.92R
STAFFORD*      CLEAR     60  58  94 W3        29.97R
WARRENTON      MOCLDY    60  60 100 CALM      29.93S FOG
CULPEPER*      CLEAR     61  60  99 CALM      29.95R
MANASSAS*      PTCLDY    63  61  94 CALM      29.94R
LEESBURG*      CLEAR     63  61  94 CALM      29.95R
WINCHESTER     CLEAR     64  55  72 CALM      29.96R
FRONT ROYAL*   FAIR      61  55  82 S5        29.95S
LURAY*         FAIR      61  61 100 CALM      29.98S
$$

VAZ048-049-060>072-079>083-021100-
CENTRAL AND SOUTH CENTRAL VIRGINIA

CITY           SKY/WX    TMP DP  RH WIND       PRES   REMARKS
RICHMOND       PTCLDY    70  60  70 N5        29.92R
CHESTERFIELD*  FAIR      66  54  63 CALM      29.93S
PETERSBURG*    CLEAR     65  65 100 NW3       29.93R
HANOVER        PTCLDY    65  62  90 CALM      29.94R
TAPPAHANNOCK*  CLEAR     69  61  75 CALM      29.92R
QUINTON*       FAIR      65  63  90 CALM      29.91R
CHARLOTTSVILLE PTCLDY    64  58  80 W7        29.96R
GORDONSVILLE*  FAIR      59  57  94 CALM      29.95R
ORANGE*        CLEAR     61  59  94 CALM      29.96S
LOUISA*        PTCLDY    59  57  94 CALM      29.94R
BUMPASS*       FAIR      64  62  96 CALM      29.94R
FARMVILLE*     CLEAR     59  59 100 CALM      29.95R
CREWE*         FAIR     N/A N/A N/A NW3       29.94R
FORT PICKETT*  FAIR      66  59  79 NW12      29.94R
CHASE CITY*    FAIR      66  63  91 CALM      29.96R
CLARKSVILLE*   FAIR      66  61  82 CALM      29.94S
SOUTH HILL*    CLEAR     65  59  80 N5        29.99R
LAWRENCEVILLE* FAIR      66  61  82 CALM      29.92R
EMPORIA*       CLEAR     64  63  94 CALM      29.93R
$$

VAZ088>098-021100-
SOUTHEAST VIRGINIA

CITY           SKY/WX    TMP DP  RH WIND       PRES   REMARKS
NORFOLK        CLEAR     75  72  90 W3        29.89R
VIRGINIA BEACH PTCLDY    74  69  85 SW3       29.88R
NORFOLK NAVAL  PTCLDY    74  70  87 N5        29.90R
WEST POINT*    PTCLDY    73  67  81 CALM      29.91S
SALUDA*        FAIR      74  66  77 NW5       29.89R
NEWPORT NEWS   PTCLDY    72  66  81 N6        29.89R
LANGLEY AFB    PTCLDY    73  70  88 NW5       29.87S
FORT EUSTIS    CLEAR     75  66  74 N3        29.88R
WILLIAMSBURG*  CLEAR     72  70  94 N3        29.91R
HR EXEC AP*    CLOUDY    66  63  88 CALM      29.92R VSB<1/4
FRANKLIN*      CLEAR     66  65  95 CALM      29.90S
WAKEFIELD      CLEAR     66  64  93 CALM      29.91R
$$

VAZ020-022-025-037-045-021100-
WEST CENTRAL AND SOUTHWEST VIRGINIA

CITY           SKY/WX    TMP DP  RH WIND       PRES   REMARKS
STAUNTON*      PTCLDY    57  54  92 CALM      30.03R
WAYNESBORO*    FAIR      56  54  91 CALM      30.01R
HOT SPRINGS VA MOCLDY    61  52  72 N6        30.09R
LYNCHBURG      PTCLDY    58  56  93 S3        29.99S
DANVILLE       PTCLDY    62  60  93 CALM      29.96S
SOUTH BOSTON*  FAIR      59  58  95 CALM      29.96R
MARTINSVILLE   PTCLDY    57  57 100 CALM      30.01S
ROANOKE        PTCLDY    60  56  86 W3        30.03R
BLACKSBURG     PTCLDY    56  56 100 CALM      30.08S
DUBLIN*          N/A     59  58  97 CALM      30.07S
MARION*        CLEAR     57  56  95 CALM      30.09S
HILLSVILLE*    PTCLDY    62  56  82 N3        30.05S
RICHLANDS*     FAIR      59  59  99 CALM      30.07S
WISE*          CLEAR     63  54  72 CALM      30.09R
ABINGDON*      CLEAR     61  58  91 CALM      30.05S
$$

MDZ021>025-VAZ099-100-021100-
SOUTHERN MARYLAND AND THE DELMARVA PENINSULA

CITY           SKY/WX    TMP DP  RH WIND       PRES   REMARKS
PATUXENT RIVER MOCLDY    74  63  68 NW6       29.91R
BAY BRIDGE APT   N/A     73  64  73 CALM      29.91R
LEONARDTOWN    CLEAR     64  61  88 CALM      29.93R
DOVER          CLEAR     69  67  93 NW2       29.89R
GEORGETOWN     MOCLDY    67  65  93 CALM      29.90S
EASTON         PTCLDY    68  68 100 CALM      29.94R
CAMBRIDGE      CLEAR     70  64  83 CALM      29.89S
SALISBURY      CLEAR     68  66  93 CALM      29.89R
OCEAN CITY     CLEAR     66  63  90 CALM      29.89R
WALLOPS ISLAND CLEAR     73  70  90 N5        29.89R
ACCOMACK*      CLEAR    N/A N/A N/A NE3       29.88R
$$

NCZ012>017-030>032-021100-
NORTH CENTRAL AND EASTERN NORTH CAROLINA

CITY           SKY/WX    TMP DP  RH WIND       PRES   REMARKS
ROANOKE RAPIDS FAIR      63  61  94 CALM      29.92R
RALEIGH        PTCLDY    67  60  78 E3        29.94R
ELIZABETH CITY   N/A     73  71  93 W3        29.89R FOG
AHOSKIE*       CLEAR     68  63  82 CALM      29.91R
EDENTON*       CLEAR     73  71  91 W3        29.90R
CURRITUCK*     CLOUDY    75  73  93 CALM      29.90R FOG
KILL DEVIL HLS PTCLDY    77  74  91 W6        29.88S
MANTEO         CLEAR     76  74  93 W7        29.89S
CAPE HATTERAS  PTCLDY    79  74  84 W7        29.90S
TARBORO*         N/A     65  63  95 CALM      29.92R
GOLDSBORO      PTCLDY    74  74 100 W5        29.90R FOG
WASHINGTON     MOCLDY    73  72  97 CALM      29.91R FOG
GREENVILLE     RAIN      72  72 100 CALM      29.93R
NEW BERN       CLEAR     74  71  91 CALM      29.92R
WILMINGTON     CLEAR     75  72  90 W3        29.90F
$$

VAZ048-021100-
ELSEWHERE

CITY           SKY/WX    TMP DP  RH WIND       PRES   REMARKS
HARRISBURG PA  CLEAR     65  60  84 CALM      29.91R
BALTIMORE      PTCLDY    66  60  81 CALM      29.91S
ANNAPOLIS      MOCLDY    70  64  81 W3        29.90R
ANDREWS AFB    PTCLDY    66  59  78 CALM      29.92R
PHILADELPHIA   PTCLDY    71  57  61 CALM      29.91R
HENDERSON NC   CLEAR     67  57  70 CALM      29.95R
GREENSBORO     MOCLDY    68  57  68 N5        29.97R
ROCKY MOUNT    CLEAR     72  61  68 NW6       29.92R
$$

VAZ100-021100-
MARINE

STATION/POSITION TIME  TEMP    WIND        PRES    WAVE   SWELL
                       AIR SEA DIR/SP/G            HT/PER HT/PER
                 (UTC) (F)     (DEG/KT/KT) (MB)    (FT/S) (FT/S)
BRANDYWINE LGT   0900   76 76  290/  3/  4 1012.4R
CAPE MAY NJ      0900   76 75   CALM  /  2 1011.7R
LEWES DE         0900   72 74  280/  5/  5 1011.9R
15NM E FENWICK I 0950   77 79  350/  6/  8 1012.2R   3/ 6   3/ 6
OCEAN-CITY-INLET 0900   75 74   20/  3/  5 1011.0R
WACHAPREAGUE VA  0948   75 83   20/  4/  5 1011.9R
GOOSES REEF MD   1000   79 81  360/  8/ 10 1013.8R
COVE POINT MD    0900   78     360/ 11/ 13 1012.7F
SOLOMONS ISLAND  0900      83                N/A
BISHOPS HEAD MD  0900   79 83   20/  8/ 12 1010.8F
PINEY POINT MD   0900           10/  8/  9   N/A
POTOMAC MD       1000   78 82  360/  6/  8 1011.5R   1
CAMBRIDGE MD     0900   76 85   40/  4/  5 1011.4R
LEWISETTA VA     0900   79 84  360/  7/ 10 1011.7S
RAPPAHANNOCK LGT 0900          360/ 18/ 20 1011.7S
STINGRAY PT      1000   80 83  350/ 12/ 14 1012.2R   1/ 2
YORK RVR RNG VA  0900   80      10/ 12/ 14 1010.9F
YORKTOWN VA      0900   77 83  340/  6/  7 1011.4F
JAMESTOWN VA     1000   74 85  320/  4/  6   N/A
DOMINION TERM VA 0900   80     330/  8/ 10 1011.4F
KIPTOPEKE VA     0900      81   10/  5/  9   N/A
CHES BAY BRIDGE  0900   78 81  230/  7/  9 1011.0F
CAPE HENRY VA    0900   76     250/  6/  8   N/A
CHESAPEAKE LGHT  0900   77     260/ 11/ 11 1012.2R
WILLOUBY STN VA  0900   79     310/  7/  8 1012.5S
CAPE HENRY BUOY  0928      78                N/A     2/11   2/11
1ST LANDING BUOY 1000      80              1011.8R   1/ 4
CAPE CHARLES BUO 0926      74                N/A     2/11   2/11
OFFSHORE WE BUOY 0911      82                N/A     3/12   2/12
64NM E OF VA BCH 0950   80 81  250/  6/  6 1011.7R   3/ 7   3/ 7
DUCK PIER NC     0900   78 76  240/  9/ 11 1011.0S
44100 DUCK FRF   0924      81                N/A     2/12   2/12
44056 DUCK FRF   0911      78                N/A     2/11
OREGON INLET NC  0900   79 82  270/ 10/ 13 1011.8S
HATTERAS NC      0900   80 81  270/ 11/ 12 1012.0R
DIAMOND SHLS NC  0950   80 85  270/ 12/ 16 1012.5S   4/ 7   2/ 7
CAPE LOOKOUT NC  1000   79     280/  9/ 11 1012.2F



USA.gov is the U.S. government's official web portal to all federal, state and local government web resources and services.